| time (UTC) | temp F | wind direction | speed MPH | gust MPH | rain 1hr in | rain 24hr in | rain mn in | humidity % | barometer mb |
| 20260507144559 | 47 | 289 | 4.0 | 7.0 | 0.00 | 0.87 | 0.00 | 85 | 1003.4 |
| 20260507143044 | 47 | 311 | 2.0 | 8.0 | 0.00 | 0.87 | 0.00 | 84 | 1003.6 |
| 20260507141536 | 46 | 306 | 4.0 | 9.0 | 0.00 | 0.87 | 0.00 | 87 | 1003.7 |
| 20260507140018 | 45 | 271 | 3.0 | 6.0 | 0.00 | 0.87 | 0.00 | 89 | 1003.7 |
| 20260507134526 | 45 | 302 | 4.0 | 6.0 | 0.00 | 0.87 | 0.00 | 88 | 1003.9 |
| 20260507133057 | 45 | 318 | 3.0 | 6.0 | 0.00 | 0.87 | 0.87 | 87 | 1003.8 |
| 20260507131600 | 45 | 325 | 3.0 | 7.0 | 0.00 | 0.87 | 0.87 | 88 | 1003.6 |
| 20260507130034 | 44 | 287 | 3.0 | 6.0 | 0.00 | 0.87 | 0.87 | 89 | 1003.9 |
| 20260507124534 | 44 | 320 | 4.0 | 7.0 | 0.00 | 0.87 | 0.87 | 90 | 1003.8 |
| 20260507123021 | 44 | 302 | 4.0 | 7.0 | 0.00 | 0.87 | 0.87 | 91 | 1003.7 |
| 20260507121519 | 43 | 331 | 3.0 | 8.0 | 0.00 | 0.87 | 0.87 | 92 | 1003.8 |
| 20260507120018 | 43 | 317 | 2.0 | 7.0 | 0.00 | 0.87 | 0.87 | 92 | 1003.8 |
| 20260507114525 | 43 | 344 | 5.0 | 8.0 | 0.00 | 0.87 | 0.87 | 92 | 1003.8 |
| 20260507113018 | 43 | 333 | 4.0 | 7.0 | 0.00 | 0.88 | 0.87 | 93 | 1003.5 |
| 20260507111521 | 42 | 292 | 3.0 | 7.0 | 0.00 | 0.88 | 0.87 | 94 | 1003.5 |
| 20260507110015 | 42 | 335 | 7.0 | 12.0 | 0.00 | 0.88 | 0.87 | 93 | 1003.2 |
| 20260507104513 | 42 | 315 | 4.0 | 10.0 | 0.00 | 0.88 | 0.87 | 94 | 1003.4 |
| 20260507103112 | 42 | 291 | 5.0 | 8.0 | 0.01 | 0.93 | 0.87 | 94 | 1003.6 |
| 20260507101558 | 42 | 316 | 4.0 | 9.0 | 0.01 | 0.93 | 0.87 | 94 | 1003.3 |
| 20260507100054 | 42 | 329 | 4.0 | 7.0 | 0.01 | 0.93 | 0.87 | 94 | 1003.1 |
| 20260507094534 | 42 | 329 | 4.0 | 7.0 | 0.02 | 0.93 | 0.87 | 94 | 1002.8 |
| 20260507093034 | 42 | 329 | 6.0 | 10.0 | 0.01 | 0.96 | 0.86 | 94 | 1002.8 |
| 20260507091515 | 42 | 331 | 5.0 | 8.0 | 0.01 | 0.96 | 0.86 | 94 | 1002.9 |
| 20260507090014 | 42 | 342 | 5.0 | 9.0 | 0.01 | 0.96 | 0.86 | 94 | 1002.8 |
| 20260507084557 | 42 | 331 | 7.0 | 13.0 | 0.00 | 0.95 | 0.85 | 94 | 1002.7 |
| 20260507083053 | 43 | 333 | 4.0 | 9.0 | 0.00 | 1.01 | 0.85 | 95 | 1002.6 |
| 20260507081534 | 43 | 321 | 5.0 | 9.0 | 0.00 | 1.01 | 0.85 | 94 | 1002.5 |
| 20260507080034 | 43 | 350 | 6.0 | 9.0 | 0.01 | 1.01 | 0.85 | 94 | 1002.3 |
| 20260507074526 | 43 | 310 | 4.0 | 10.0 | 0.01 | 1.01 | 0.85 | 95 | 1002.4 |
| 20260507073014 | 43 | 325 | 6.0 | 11.0 | 0.02 | 1.05 | 0.85 | 95 | 1002.2 |
| 20260507071558 | 43 | 336 | 6.0 | 12.0 | 0.04 | 1.05 | 0.85 | 95 | 1002.1 |
| 20260507064537 | 44 | 340 | 6.0 | 10.0 | 0.08 | 1.04 | 0.84 | 95 | 1002.5 |
| 20260507063035 | 44 | 340 | 3.0 | 7.0 | 0.09 | 1.03 | 0.83 | 95 | 1002.2 |
| 20260507061513 | 44 | 344 | 5.0 | 10.0 | 0.09 | 1.01 | 0.81 | 95 | 1002.5 |
| 20260507060010 | 44 | 360 | 4.0 | 9.0 | 0.08 | 0.99 | 0.79 | 95 | 1002.6 |
| 20260507054555 | 44 | 328 | 7.0 | 11.0 | 0.06 | 0.96 | 0.76 | 95 | 1002.6 |
| 20260507053053 | 45 | 323 | 6.0 | 10.0 | 0.06 | 0.94 | 0.74 | 95 | 1003.1 |
| 20260507051539 | 45 | 344 | 5.0 | 10.0 | 0.06 | 0.92 | 0.72 | 95 | 1003.0 |
| 20260507050034 | 45 | 336 | 6.0 | 11.0 | 0.09 | 0.91 | 0.71 | 95 | 1002.7 |
| 20260507044509 | 45 | 329 | 4.0 | 10.0 | 0.11 | 0.90 | 0.70 | 95 | 1002.5 |
| 20260507043008 | 45 | 346 | 3.0 | 8.0 | 0.12 | 0.88 | 0.68 | 96 | 1002.5 |
| 20260507041550 | 45 | 76 | 0.0 | 1.0 | 0.11 | 0.86 | 0.66 | 95 | 1002.3 |
| 20260507040048 | 45 | 77 | 0.0 | 3.0 | 0.07 | 0.82 | 0.62 | 95 | 1002.5 |
| 20260507034548 | 45 | 86 | 0.0 | 3.0 | 0.05 | 0.79 | 0.59 | 95 | 1002.8 |
| 20260507033030 | 45 | 59 | 0.0 | 3.0 | 0.05 | 0.76 | 0.56 | 95 | 1002.9 |
| 20260507031511 | 45 | 344 | 0.0 | 2.0 | 0.05 | 0.75 | 0.55 | 95 | 1003.2 |
| 20260507030006 | 45 | 344 | 0.0 | 3.0 | 0.07 | 0.75 | 0.55 | 95 | 1003.5 |
| 20260507024556 | 46 | 343 | 0.0 | 3.0 | 0.07 | 0.74 | 0.54 | 95 | 1003.6 |
| 20260507023045 | 46 | 342 | 0.0 | 3.0 | 0.04 | 0.71 | 0.51 | 95 | 1004.0 |
| 20260507021524 | 46 | 338 | 0.0 | 6.0 | 0.03 | 0.70 | 0.50 | 95 | 1004.3 |
| 20260507020024 | 46 | 341 | 0.0 | 6.0 | 0.02 | 0.68 | 0.48 | 95 | 1004.4 |
| 20260507014506 | 46 | 346 | 2.0 | 7.0 | 0.03 | 0.67 | 0.47 | 95 | 1004.6 |
| 20260507013005 | 46 | 351 | 1.0 | 5.0 | 0.03 | 0.68 | 0.47 | 95 | 1004.5 |
| 20260507011548 | 46 | 355 | 0.0 | 4.0 | 0.04 | 0.68 | 0.47 | 95 | 1004.7 |
| 20260507010059 | 46 | 20 | 0.0 | 4.0 | 0.04 | 0.67 | 0.46 | 95 | 1004.8 |
| 20260507004527 | 46 | 85 | 0.0 | 0.0 | 0.03 | 0.65 | 0.44 | 95 | 1004.8 |
| 20260507003027 | 46 | 85 | 0.0 | 0.0 | 0.05 | 0.68 | 0.44 | 95 | 1004.9 |
| 20260507001509 | 46 | 85 | 0.0 | 2.0 | 0.05 | 0.67 | 0.43 | 95 | 1004.7 |
| 20260507000007 | 46 | 85 | 0.0 | 3.0 | 0.06 | 0.66 | 0.42 | 95 | 1004.9 |
| 20260506234548 | 46 | 78 | 0.0 | 3.0 | 0.06 | 0.65 | 0.41 | 95 | 1004.9 |
| 20260506233058 | 46 | 78 | 0.0 | 2.0 | 0.06 | 0.70 | 0.39 | 95 | 1005.4 |
| 20260506231529 | 46 | 77 | 0.0 | 4.0 | 0.07 | 0.69 | 0.38 | 95 | 1005.2 |
| 20260506230029 | 46 | 355 | 0.0 | 2.0 | 0.09 | 0.67 | 0.36 | 95 | 1005.4 |
| 20260506224511 | 46 | 355 | 0.0 | 2.0 | 0.11 | 0.66 | 0.35 | 95 | 1005.3 |
| 20260506223008 | 47 | 350 | 0.0 | 2.0 | 0.10 | 0.76 | 0.33 | 95 | 1005.2 |
| 20260506221551 | 47 | 338 | 0.0 | 2.0 | 0.10 | 0.74 | 0.31 | 95 | 1005.2 |
| 20260506220052 | 47 | 343 | 5.0 | 9.0 | 0.07 | 0.70 | 0.27 | 95 | 1005.4 |
| 20260506214529 | 47 | 68 | 0.0 | 3.0 | 0.06 | 0.67 | 0.24 | 95 | 1005.0 |
| 20260506213027 | 47 | 69 | 0.0 | 2.0 | 0.06 | 0.68 | 0.23 | 95 | 1005.5 |
| 20260506211509 | 47 | 69 | 0.0 | 2.0 | 0.05 | 0.66 | 0.21 | 95 | 1005.4 |
| 20260506210007 | 47 | 71 | 0.0 | 4.0 | 0.06 | 0.65 | 0.20 | 94 | 1005.5 |
| 20260506204555 | 47 | 46 | 0.0 | 3.0 | 0.07 | 0.63 | 0.18 | 94 | 1005.7 |
| 20260506203052 | 47 | 65 | 0.0 | 2.0 | 0.09 | 0.62 | 0.17 | 94 | 1005.8 |
| 20260506201550 | 47 | 69 | 0.0 | 5.0 | 0.10 | 0.61 | 0.16 | 94 | 1005.8 |
| 20260506200049 | 47 | 60 | 0.0 | 3.0 | 0.09 | 0.59 | 0.14 | 94 | 1006.0 |
| 20260506194547 | 47 | 344 | 0.0 | 3.0 | 0.07 | 0.56 | 0.11 | 94 | 1006.5 |
| 20260506193047 | 48 | 336 | 3.0 | 7.0 | 0.04 | 0.53 | 0.08 | 93 | 1006.8 |
| 20260506191542 | 48 | 346 | 1.0 | 5.0 | 0.03 | 0.51 | 0.06 | 93 | 1006.6 |
| 20260506190041 | 48 | 328 | 0.0 | 8.0 | 0.03 | 0.50 | 0.05 | 93 | 1006.6 |
| 20260506184525 | 49 | 75 | 1.0 | 5.0 | 0.02 | 0.49 | 0.04 | 93 | 1006.1 |
| 20260506183018 | 49 | 65 | 1.0 | 5.0 | 0.02 | 0.49 | 0.04 | 92 | 1006.7 |
| 20260506181557 | 49 | 64 | 0.0 | 1.0 | 0.02 | 0.48 | 0.03 | 92 | 1007.4 |
| 20260506180056 | 49 | 65 | 0.0 | 3.0 | 0.01 | 0.47 | 0.02 | 91 | 1007.7 |
| 20260506174538 | 49 | 22 | 0.0 | 3.0 | 0.01 | 0.47 | 0.02 | 91 | 1007.8 |
| 20260506173035 | 49 | 344 | 0.0 | 4.0 | 0.01 | 0.47 | 0.02 | 90 | 1008.3 |
| 20260506171517 | 49 | 320 | 3.0 | 5.0 | 0.00 | 0.46 | 0.01 | 89 | 1008.7 |
| 20260506170014 | 49 | 273 | 1.0 | 4.0 | 0.00 | 0.46 | 0.01 | 85 | 1008.6 |
| 20260506164556 | 49 | 271 | 0.0 | 2.0 | 0.01 | 0.46 | 0.01 | 87 | 1008.3 |
| 20260506163056 | 50 | 194 | 0.0 | 1.0 | 0.01 | 0.46 | 0.01 | 88 | 1008.2 |
| 20260506161539 | 50 | 194 | 0.0 | 1.0 | 0.01 | 0.46 | 0.01 | 87 | 1008.2 |
| 20260506160035 | 50 | 236 | 0.0 | 4.0 | 0.01 | 0.46 | 0.01 | 86 | 1008.8 |
| 20260506154517 | 50 | 182 | 0.0 | 2.0 | 0.00 | 0.45 | 0.00 | 82 | 1009.1 |
| 20260506153015 | 50 | 182 | 0.0 | 2.0 | 0.00 | 0.45 | 0.00 | 81 | 1009.1 |
| 20260506151558 | 50 | 182 | 0.0 | 5.0 | 0.00 | 0.45 | 0.00 | 82 | 1009.0 |